• In Lithuania
  • List of Countries
  • For 7 days
  • Water Temperature
  • Satellite Maps
  • Weather Map
  • Weather Widgets
  • user-avatar
    Login

    Hourly Weather Ischgl

    Today, 22 September, Saturday

    Time Temperature Precipitation Wind Pressure Humidity
    00:00 +6°C° 0.6 mm 2 mps 578 mmHg 97%
    01:00 +5°C° 0 mm 2 mps 578 mmHg 97%
    02:00 +5°C° 0.2 mm 2 mps 577 mmHg 97%
    03:00 +4°C° 0.2 mm 2 mps 577 mmHg 97%
    04:00 +4°C° 0.2 mm 2 mps 577 mmHg 97%
    05:00 +4°C° 0 mm 2 mps 577 mmHg 96%
    06:00 +3°C° 0 mm 2 mps 577 mmHg 95%
    07:00 +3°C° 0 mm 2 mps 577 mmHg 94%
    08:00 +5°C° 0 mm 1 mps 578 mmHg 88%
    09:00 +6°C° 0 mm 1 mps 578 mmHg 82%
    10:00 +8°C° 0 mm 1 mps 579 mmHg 76%
    11:00 +9°C° 0 mm 1 mps 580 mmHg 69%
    12:00 +10°C° 0 mm 1 mps 580 mmHg 63%
    13:00 +12°C° 0 mm 1 mps 580 mmHg 56%
    14:00 +12°C° 0 mm 2 mps 580 mmHg 58%
    15:00 +10°C° 0 mm 2 mps 580 mmHg 59%
    16:00 +10°C° 0 mm 2 mps 580 mmHg 61%
    17:00 +9°C° 0 mm 2 mps 579 mmHg 69%
    18:00 +8°C° 0 mm 1 mps 579 mmHg 76%
    19:00 +7°C° 0 mm 1 mps 578 mmHg 84%
    20:00 +7°C° 0 mm 1 mps 578 mmHg 82%
    21:00 +7°C° 0 mm 1 mps 579 mmHg 81%
    22:00 +7°C° 0 mm 1 mps 579 mmHg 79%
    23:00 +7°C° 0.1 mm 1 mps 579 mmHg 80%

    Tomorrow, 23 September, Sunday

    Time Temperature Precipitation Wind Pressure Humidity
    00:00 +8°C° 0.1 mm 1 mps 579 mmHg 80%
    01:00 +8°C° 0.1 mm 1 mps 579 mmHg 80%
    02:00 +8°C° 0.1 mm 1 mps 579 mmHg 80%
    03:00 +8°C° 0.1 mm 1 mps 579 mmHg 80%
    04:00 +7°C° 0.1 mm 2 mps 579 mmHg 80%
    05:00 +7°C° 0 mm 2 mps 579 mmHg 81%
    06:00 +8°C° 0 mm 1 mps 579 mmHg 81%
    07:00 +8°C° 0 mm 1 mps 579 mmHg 81%
    08:00 +10°C° 0 mm 1 mps 579 mmHg 75%
    09:00 +12°C° 0 mm 1 mps 580 mmHg 69%
    10:00 +14°C° 0 mm 1 mps 581 mmHg 63%
    11:00 +15°C° 0 mm 2 mps 581 mmHg 60%
    12:00 +16°C° 0 mm 2 mps 582 mmHg 56%
    13:00 +17°C° 0 mm 2 mps 582 mmHg 52%
    14:00 +17°C° 0.3 mm 2 mps 581 mmHg 56%
    15:00 +16°C° 0.3 mm 3 mps 581 mmHg 60%
    16:00 +16°C° 0.3 mm 3 mps 580 mmHg 64%
    17:00 +14°C° 0.9 mm 2 mps 579 mmHg 74%
    18:00 +12°C° 0.9 mm 2 mps 578 mmHg 83%
    19:00 +9°C° 0.9 mm 2 mps 577 mmHg 93%
    20:00 +9°C° 0.5 mm 2 mps 577 mmHg 93%
    21:00 +8°C° 0.5 mm 2 mps 577 mmHg 93%
    22:00 +8°C° 0.5 mm 2 mps 576 mmHg 94%
    23:00 +7°C° 2 mm 3 mps 576 mmHg 94%

    Day after tomorrow, 24 September, Monday

    Time Temperature Precipitation Wind Pressure Humidity
    00:00 +7°C° 2 mm 3 mps 577 mmHg 95%
    01:00 +5°C° 2 mm 3 mps 577 mmHg 96%
    02:00 +4°C° 1.5 mm 3 mps 577 mmHg 96%
    03:00 +3°C° 1.5 mm 3 mps 577 mmHg 95%
    04:00 +1°C° 1.5 mm 4 mps 577 mmHg 95%
    05:00 +2°C° 0.2 mm 3 mps 577 mmHg 95%
    06:00 +1°C° 0.2 mm 3 mps 577 mmHg 95%
    07:00 0°C° 0.2 mm 3 mps 577 mmHg 94%
    08:00 0°C° 0.1 mm 3 mps 578 mmHg 90%
    09:00 0°C° 0.1 mm 3 mps 578 mmHg 86%
    10:00 +1°C° 0.1 mm 3 mps 579 mmHg 82%
    11:00 +1°C° 0 mm 3 mps 579 mmHg 77%
    12:00 +2°C° 0 mm 3 mps 580 mmHg 73%
    13:00 +2°C° 0 mm 3 mps 580 mmHg 68%
    14:00 +2°C° 0 mm 3 mps 580 mmHg 66%
    15:00 +2°C° 0 mm 3 mps 580 mmHg 64%
    16:00 +2°C° 0 mm 3 mps 580 mmHg 62%
    17:00 0°C° 0 mm 3 mps 580 mmHg 68%
    18:00 -1°C° 0 mm 3 mps 580 mmHg 74%
    19:00 -3°C° 0 mm 2 mps 580 mmHg 81%
    20:00 -3°C° 0 mm 2 mps 580 mmHg 82%
    21:00 -4°C° 0 mm 2 mps 580 mmHg 84%
    22:00 -5°C° 0 mm 2 mps 580 mmHg 86%
    23:00 -5°C° 0 mm 2 mps 580 mmHg 84%

    25 September, Tuesday

    Time Temperature Precipitation Wind Pressure Humidity
    00:00 -5°C° 0 mm 2 mps 580 mmHg 83%
    01:00 -4°C° 0 mm 1 mps 580 mmHg 82%
    02:00 -4°C° 0 mm 1 mps 580 mmHg 78%
    03:00 -4°C° 0 mm 1 mps 580 mmHg 74%
    04:00 -4°C° 0 mm 1 mps 580 mmHg 70%
    05:00 -3°C° 0 mm 1 mps 580 mmHg 65%
    06:00 -3°C° 0 mm 1 mps 581 mmHg 61%
    07:00 -2°C° 0 mm 1 mps 581 mmHg 56%
    08:00 0°C° 0 mm 1 mps 582 mmHg 48%
    09:00 +3°C° 0 mm 1 mps 583 mmHg 41%
    10:00 +5°C° 0 mm 1 mps 585 mmHg 33%
    11:00 +5°C° 0 mm 2 mps 585 mmHg 32%
    12:00 +7°C° 0 mm 2 mps 585 mmHg 31%
    13:00 +8°C° 0 mm 2 mps 586 mmHg 31%
    14:00 +7°C° 0 mm 2 mps 585 mmHg 35%
    15:00 +7°C° 0 mm 2 mps 585 mmHg 39%
    16:00 +7°C° 0 mm 2 mps 585 mmHg 42%
    17:00 +4°C° 0 mm 2 mps 584 mmHg 55%
    18:00 +3°C° 0 mm 1 mps 583 mmHg 67%
    19:00 0°C° 0 mm 1 mps 582 mmHg 80%
    20:00 0°C° 0 mm 1 mps 582 mmHg 79%
    21:00 0°C° 0 mm 1 mps 582 mmHg 78%
    22:00 -2°C° 0 mm 2 mps 583 mmHg 77%
    23:00 -2°C° 0 mm 2 mps 583 mmHg 78%

    26 September, Wednesday

    Time Temperature Precipitation Wind Pressure Humidity
    00:00 -2°C° 0 mm 2 mps 583 mmHg 79%
    01:00 -2°C° 0 mm 2 mps 583 mmHg 80%
    02:00 -2°C° 0 mm 2 mps 583 mmHg 80%
    03:00 -2°C° 0 mm 2 mps 583 mmHg 80%
    04:00 -2°C° 0 mm 2 mps 583 mmHg 80%
    05:00 -2°C° 0 mm 2 mps 583 mmHg 76%
    06:00 -1°C° 0 mm 2 mps 583 mmHg 73%
    07:00 -1°C° 0 mm 2 mps 583 mmHg 69%
    08:00 +4°C° 0 mm 1 mps 585 mmHg 58%
    09:00 +7°C° 0 mm 1 mps 586 mmHg 47%
    10:00 +10°C° 0 mm 1 mps 588 mmHg 36%
    11:00 +11°C° 0 mm 1 mps 588 mmHg 34%
    12:00 +12°C° 0 mm 1 mps 588 mmHg 33%
    13:00 +13°C° 0 mm 1 mps 589 mmHg 31%
    14:00 +13°C° 0 mm 1 mps 588 mmHg 35%
    15:00 +12°C° 0 mm 1 mps 588 mmHg 39%
    16:00 +12°C° 0 mm 1 mps 587 mmHg 43%
    17:00 +9°C° 0 mm 1 mps 586 mmHg 55%
    18:00 +6°C° 0 mm 1 mps 585 mmHg 67%
    19:00 +2°C° 0 mm 0 mps 583 mmHg 78%
    20:00 +3°C° 0 mm 1 mps 583 mmHg 77%
    21:00 +3°C° 0 mm 1 mps 583 mmHg 75%
    22:00 +3°C° 0 mm 1 mps 584 mmHg 73%
    23:00 +3°C° 0 mm 1 mps 583 mmHg 72%

    27 September, Thursday

    Time Temperature Precipitation Wind Pressure Humidity
    00:00 +3°C° 0 mm 1 mps 583 mmHg 70%
    01:00 +3°C° 0 mm 1 mps 583 mmHg 69%
    02:00 +3°C° 0 mm 1 mps 583 mmHg 67%
    03:00 +2°C° 0 mm 1 mps 583 mmHg 65%
    04:00 +2°C° 0 mm 1 mps 582 mmHg 63%
    05:00 +3°C° 0 mm 1 mps 583 mmHg 60%
    06:00 +3°C° 0 mm 1 mps 583 mmHg 58%
    07:00 +3°C° 0 mm 1 mps 583 mmHg 56%
    08:00 +6°C° 0 mm 1 mps 584 mmHg 48%
    09:00 +9°C° 0 mm 1 mps 585 mmHg 41%
    10:00 +12°C° 0 mm 1 mps 586 mmHg 34%
    11:00 +13°C° 0 mm 2 mps 587 mmHg 33%
    12:00 +14°C° 0 mm 2 mps 587 mmHg 32%
    13:00 +15°C° 0 mm 2 mps 587 mmHg 32%
    14:00 +14°C° 0 mm 2 mps 586 mmHg 35%
    15:00 +14°C° 0 mm 2 mps 585 mmHg 39%
    16:00 +13°C° 0 mm 2 mps 585 mmHg 43%
    17:00 +9°C° 0 mm 2 mps 583 mmHg 56%
    18:00 +7°C° 0 mm 1 mps 582 mmHg 69%
    19:00 +4°C° 0 mm 1 mps 580 mmHg 82%
    20:00 +4°C° 0 mm 1 mps 580 mmHg 83%
    21:00 +3°C° 0 mm 1 mps 580 mmHg 85%
    22:00 +3°C° 0 mm 1 mps 579 mmHg 86%
    23:00 +3°C° 0 mm 1 mps 579 mmHg 85%
    Show more